GFSNGP_prec_precacc24_072.txt.gz
Total_Precipitation_Accumulation
0.00 0.00 0.00 0.00 0.00 0.00 0.00 0.00 0.00 0.00 0.00 0.00 0.00 0.00 0.00 0.00 0.00 0.00 0.00 0.00 0.00 0.00 0.01 0.01 0.04 0.11 0.14 0.18 0.18 0.24 0.25 0.26 0.27 0.27 0.28 0.17 0.13 0.13 0.12 0.13 0.14 0.14 0.10 0.08
0.00 0.00 0.00 0.00 0.00 0.00 0.00 0.00 0.00 0.00 0.00 0.00 0.00 0.00 0.00 0.00 0.00 0.00 0.00 0.00 0.00 0.00 0.01 0.02 0.04 0.09 0.12 0.12 0.15 0.18 0.18 0.21 0.18 0.18 0.13 0.10 0.10 0.04 0.06 0.06 0.05 0.06 0.07 0.11
0.00 0.00 0.00 0.04 0.00 0.00 0.00 0.00 0.00 0.00 0.00 0.00 0.00 0.00 0.00 0.00 0.00 0.00 0.00 0.00 0.00 0.00 0.01 0.03 0.03 0.01 0.03 0.05 0.08 0.07 0.11 0.10 0.09 0.07 0.06 0.04 0.03 0.02 0.01 0.04 0.08 0.12 0.15 0.11
0.00 0.00 0.07 0.02 0.00 0.00 0.00 0.00 0.00 0.00 0.00 0.00 0.00 0.00 0.00 0.00 0.00 0.00 0.00 0.00 0.00 0.01 0.02 0.00 0.00 0.00 0.01 0.01 0.02 0.01 0.01 0.01 0.01 0.01 0.00 0.00 0.01 0.05 0.10 0.13 0.16 0.13 0.04 0.01
0.03 0.02 0.01 0.00 0.00 0.00 0.00 0.00 0.00 0.00 0.00 0.00 0.00 0.00 0.00 0.00 0.00 0.00 0.00 0.00 0.00 0.00 0.00 0.00 0.00 0.00 0.00 0.00 0.00 0.00 0.00 0.00 0.00 0.00 0.00 0.02 0.08 0.17 0.18 0.10 0.02 0.00 0.00 0.00
0.03 0.02 0.00 0.00 0.00 0.00 0.00 0.00 0.00 0.00 0.00 0.00 0.00 0.00 0.00 0.00 0.00 0.00 0.00 0.00 0.00 0.00 0.00 0.00 0.00 0.00 0.00 0.00 0.00 0.00 0.00 0.00 0.00 0.02 0.13 0.19 0.14 0.05 0.00 0.00 0.00 0.00 0.00 0.00
0.07 0.03 0.00 0.00 0.00 0.00 0.00 0.00 0.00 0.00 0.00 0.00 0.00 0.00 0.00 0.00 0.00 0.00 0.00 0.00 0.00 0.00 0.00 0.00 0.00 0.00 0.00 0.00 0.00 0.00 0.01 0.05 0.09 0.11 0.05 0.00 0.00 0.00 0.00 0.00 0.00 0.00 0.00 0.00
0.09 0.05 0.01 0.00 0.00 0.00 0.00 0.00 0.00 0.00 0.00 0.00 0.00 0.00 0.00 0.00 0.00 0.00 0.00 0.00 0.00 0.00 0.00 0.00 0.00 0.00 0.00 0.00 0.01 0.02 0.03 0.01 0.00 0.00 0.00 0.00 0.00 0.00 0.00 0.00 0.00 0.00 0.00 0.00
0.02 0.01 0.00 0.00 0.00 0.00 0.00 0.00 0.00 0.00 0.00 0.00 0.00 0.00 0.00 0.00 0.00 0.00 0.00 0.00 0.00 0.00 0.00 0.00 0.00 0.00 0.00 0.00 0.00 0.00 0.00 0.00 0.00 0.00 0.00 0.00 0.00 0.00 0.00 0.00 0.00 0.00 0.00 0.00
0.09 0.01 0.03 0.05 0.03 0.00 0.00 0.00 0.00 0.00 0.00 0.01 0.01 0.01 0.00 0.00 0.00 0.00 0.00 0.00 0.00 0.00 0.00 0.00 0.00 0.00 0.00 0.00 0.00 0.00 0.00 0.00 0.00 0.00 0.00 0.00 0.00 0.00 0.00 0.00 0.00 0.00 0.00 0.00
0.04 0.04 0.06 0.07 0.12 0.05 0.01 0.00 0.00 0.00 0.00 0.00 0.00 0.00 0.00 0.00 0.00 0.00 0.00 0.00 0.00 0.00 0.00 0.00 0.00 0.00 0.00 0.00 0.00 0.00 0.00 0.00 0.00 0.00 0.00 0.00 0.00 0.00 0.00 0.00 0.00 0.00 0.00 0.00
0.00 0.01 0.01 0.00 0.00 0.01 0.01 0.00 0.00 0.00 0.00 0.00 0.00 0.00 0.00 0.00 0.00 0.00 0.00 0.00 0.00 0.00 0.00 0.00 0.00 0.00 0.00 0.00 0.00 0.00 0.00 0.00 0.00 0.00 0.00 0.00 0.00 0.00 0.00 0.00 0.00 0.00 0.00 0.00
0.01 0.00 0.00 0.00 0.01 0.01 0.00 0.00 0.00 0.00 0.00 0.01 0.00 0.00 0.00 0.00 0.00 0.00 0.00 0.00 0.00 0.00 0.00 0.00 0.00 0.00 0.00 0.00 0.00 0.00 0.00 0.00 0.00 0.00 0.00 0.00 0.00 0.00 0.00 0.00 0.00 0.00 0.00 0.01
0.00 0.00 0.00 0.00 0.00 0.00 0.00 0.00 0.00 0.00 0.00 0.00 0.00 0.00 0.00 0.00 0.00 0.00 0.00 0.00 0.00 0.00 0.00 0.00 0.00 0.00 0.00 0.00 0.00 0.00 0.00 0.00 0.01 0.01 0.01 0.00 0.00 0.01 0.02 0.03 0.04 0.02 0.00 0.00
0.00 0.00 0.00 0.00 0.00 0.00 0.00 0.00 0.00 0.00 0.00 0.00 0.00 0.00 0.00 0.00 0.00 0.00 0.00 0.00 0.00 0.00 0.00 0.00 0.00 0.00 0.00 0.00 0.00 0.01 0.01 0.02 0.02 0.02 0.04 0.06 0.07 0.07 0.05 0.03 0.02 0.01 0.00 0.00
0.00 0.00 0.00 0.00 0.00 0.00 0.00 0.00 0.00 0.00 0.00 0.00 0.00 0.00 0.00 0.00 0.00 0.00 0.00 0.00 0.00 0.00 0.00 0.00 0.01 0.01 0.02 0.04 0.04 0.05 0.07 0.11 0.13 0.15 0.15 0.12 0.09 0.07 0.04 0.03 0.03 0.02 0.01 0.01
0.00 0.00 0.00 0.00 0.00 0.00 0.00 0.00 0.00 0.00 0.00 0.00 0.00 0.00 0.00 0.00 0.00 0.00 0.00 0.00 0.00 0.01 0.02 0.06 0.12 0.15 0.18 0.21 0.25 0.27 0.25 0.21 0.18 0.15 0.12 0.10 0.08 0.05 0.04 0.05 0.03 0.02 0.01 0.02
0.00 0.00 0.00 0.00 0.00 0.00 0.00 0.00 0.00 0.00 0.00 0.00 0.00 0.01 0.03 0.06 0.08 0.10 0.10 0.11 0.16 0.23 0.28 0.31 0.29 0.32 0.33 0.31 0.26 0.22 0.17 0.13 0.09 0.07 0.05 0.04 0.03 0.02 0.03 0.02 0.01 0.02 0.03 0.06
0.02 0.01 0.01 0.01 0.01 0.01 0.02 0.03 0.04 0.06 0.10 0.15 0.20 0.27 0.32 0.39 0.44 0.50 0.49 0.46 0.47 0.46 0.51 0.42 0.31 0.24 0.19 0.14 0.10 0.07 0.06 0.05 0.03 0.02 0.02 0.01 0.00 0.00 0.01 0.01 0.01 0.03 0.04 0.07
0.18 0.19 0.19 0.20 0.20 0.19 0.26 0.38 0.44 0.56 0.67 0.61 0.59 0.62 0.63 0.65 0.61 0.58 0.54 0.51 0.43 0.33 0.26 0.19 0.14 0.09 0.06 0.04 0.03 0.02 0.01 0.00 0.00 0.00 0.00 0.00 0.00 0.01 0.01 0.00 0.01 0.02 0.04 0.06
0.48 0.52 0.53 0.55 0.67 0.78 0.78 0.79 0.65 0.65 0.73 0.60 0.48 0.52 0.51 0.52 0.43 0.34 0.26 0.23 0.24 0.16 0.11 0.08 0.05 0.03 0.01 0.00 0.00 0.00 0.00 0.00 0.00 0.00 0.00 0.01 0.01 0.01 0.01 0.01 0.01 0.01 0.02 0.03
0.53 0.53 0.57 0.52 0.43 0.54 0.57 0.50 0.36 0.36 0.35 0.33 0.31 0.28 0.24 0.25 0.21 0.17 0.13 0.10 0.09 0.06 0.04 0.02 0.00 0.00 0.00 0.00 0.00 0.00 0.00 0.00 0.00 0.00 0.01 0.01 0.01 0.01 0.01 0.01 0.01 0.01 0.01 0.02
0.49 0.43 0.41 0.35 0.25 0.29 0.31 0.26 0.24 0.18 0.18 0.19 0.18 0.16 0.11 0.09 0.07 0.04 0.06 0.05 0.02 0.01 0.00 0.00 0.00 0.00 0.00 0.00 0.00 0.01 0.00 0.00 0.00 0.01 0.01 0.01 0.02 0.02 0.02 0.02 0.01 0.01 0.02 0.02
0.34 0.31 0.30 0.25 0.14 0.09 0.14 0.19 0.11 0.09 0.07 0.07 0.06 0.05 0.03 0.01 0.02 0.01 0.00 0.00 0.00 0.00 0.00 0.00 0.00 0.00 0.00 0.01 0.01 0.01 0.01 0.01 0.01 0.02 0.01 0.01 0.01 0.02 0.01 0.01 0.01 0.01 0.01 0.01
0.35 0.35 0.31 0.23 0.16 0.19 0.15 0.11 0.05 0.03 0.02 0.01 0.01 0.00 0.01 0.00 0.01 0.02 0.01 0.01 0.00 0.02 0.03 0.01 0.00 0.00 0.00 0.01 0.02 0.01 0.01 0.02 0.02 0.01 0.02 0.02 0.01 0.01 0.01 0.01 0.02 0.01 0.01 0.01
0.31 0.26 0.24 0.19 0.18 0.15 0.11 0.06 0.06 0.04 0.01 0.01 0.02 0.02 0.02 0.02 0.01 0.02 0.01 0.01 0.01 0.01 0.02 0.03 0.02 0.01 0.01 0.01 0.01 0.01 0.02 0.02 0.02 0.03 0.02 0.01 0.01 0.01 0.01 0.01 0.01 0.01 0.01 0.01
0.26 0.22 0.16 0.12 0.11 0.08 0.05 0.03 0.03 0.04 0.03 0.04 0.05 0.05 0.04 0.04 0.02 0.02 0.03 0.02 0.01 0.01 0.01 0.02 0.02 0.02 0.01 0.01 0.01 0.02 0.02 0.02 0.02 0.02 0.01 0.01 0.01 0.01 0.01 0.01 0.01 0.00 0.00 0.00

GFSNGP_prec_precacc24_078.txt.gz
Total_Precipitation_Accumulation
0.00 0.00 0.00 0.00 0.00 0.00 0.00 0.00 0.00 0.00 0.00 0.00 0.00 0.00 0.00 0.00 0.00 0.00 0.00 0.00 0.00 0.00 0.00 0.00 0.00 0.03 0.04 0.06 0.07 0.15 0.15 0.19 0.25 0.31 0.34 0.24 0.19 0.17 0.19 0.20 0.25 0.26 0.20 0.16
0.00 0.00 0.00 0.00 0.00 0.00 0.00 0.00 0.00 0.00 0.00 0.00 0.00 0.00 0.00 0.00 0.00 0.00 0.00 0.00 0.00 0.00 0.00 0.00 0.01 0.03 0.05 0.06 0.09 0.13 0.15 0.19 0.20 0.22 0.16 0.14 0.13 0.06 0.07 0.13 0.14 0.14 0.16 0.20
0.00 0.00 0.01 0.06 0.00 0.00 0.00 0.00 0.00 0.00 0.00 0.00 0.00 0.00 0.00 0.00 0.00 0.00 0.00 0.00 0.00 0.00 0.01 0.02 0.02 0.01 0.02 0.01 0.04 0.06 0.13 0.13 0.12 0.10 0.08 0.05 0.03 0.03 0.03 0.05 0.09 0.17 0.23 0.19
0.02 0.01 0.11 0.05 0.00 0.00 0.00 0.00 0.00 0.00 0.00 0.00 0.00 0.00 0.00 0.00 0.00 0.00 0.00 0.00 0.00 0.01 0.02 0.00 0.00 0.00 0.01 0.01 0.01 0.01 0.02 0.04 0.04 0.03 0.01 0.01 0.02 0.03 0.04 0.07 0.16 0.15 0.09 0.05
0.17 0.03 0.01 0.00 0.00 0.00 0.00 0.00 0.00 0.00 0.00 0.00 0.00 0.00 0.00 0.00 0.00 0.00 0.00 0.00 0.00 0.00 0.00 0.00 0.00 0.00 0.00 0.00 0.00 0.00 0.00 0.01 0.02 0.02 0.01 0.01 0.04 0.09 0.12 0.12 0.07 0.03 0.03 0.03
0.17 0.09 0.01 0.00 0.00 0.00 0.00 0.00 0.00 0.00 0.00 0.00 0.00 0.00 0.00 0.00 0.00 0.00 0.00 0.00 0.00 0.00 0.00 0.00 0.00 0.00 0.00 0.00 0.00 0.00 0.00 0.00 0.00 0.01 0.04 0.06 0.07 0.05 0.04 0.05 0.04 0.03 0.04 0.03
0.12 0.11 0.01 0.00 0.00 0.00 0.06 0.01 0.00 0.00 0.00 0.00 0.00 0.00 0.00 0.00 0.00 0.00 0.00 0.00 0.00 0.00 0.00 0.00 0.00 0.00 0.00 0.00 0.00 0.00 0.00 0.01 0.01 0.03 0.02 0.02 0.03 0.04 0.04 0.03 0.02 0.02 0.02 0.01
0.12 0.08 0.02 0.01 0.02 0.03 0.02 0.00 0.00 0.00 0.00 0.00 0.00 0.00 0.00 0.00 0.00 0.00 0.00 0.00 0.00 0.00 0.00 0.00 0.00 0.00 0.00 0.00 0.00 0.00 0.00 0.00 0.01 0.01 0.01 0.02 0.02 0.03 0.02 0.02 0.01 0.01 0.01 0.01
0.04 0.02 0.01 0.01 0.01 0.03 0.02 0.01 0.00 0.00 0.00 0.00 0.00 0.00 0.00 0.00 0.00 0.00 0.00 0.00 0.00 0.00 0.00 0.00 0.00 0.00 0.00 0.00 0.00 0.00 0.00 0.00 0.00 0.01 0.01 0.01 0.01 0.01 0.01 0.01 0.01 0.01 0.00 0.00
0.11 0.02 0.03 0.05 0.03 0.01 0.01 0.01 0.00 0.00 0.01 0.01 0.01 0.01 0.00 0.00 0.00 0.00 0.00 0.00 0.00 0.00 0.00 0.00 0.00 0.00 0.00 0.00 0.00 0.00 0.00 0.00 0.00 0.00 0.00 0.00 0.00 0.00 0.00 0.00 0.00 0.00 0.00 0.00
0.05 0.04 0.06 0.08 0.12 0.05 0.01 0.00 0.00 0.00 0.00 0.00 0.00 0.01 0.01 0.01 0.00 0.00 0.00 0.00 0.00 0.01 0.00 0.00 0.00 0.00 0.00 0.00 0.00 0.00 0.00 0.00 0.00 0.00 0.00 0.00 0.00 0.00 0.00 0.00 0.00 0.00 0.00 0.01
0.00 0.01 0.01 0.00 0.00 0.01 0.01 0.00 0.00 0.00 0.00 0.00 0.00 0.00 0.00 0.00 0.01 0.00 0.00 0.01 0.01 0.01 0.00 0.00 0.00 0.00 0.00 0.00 0.00 0.00 0.00 0.00 0.00 0.00 0.00 0.00 0.00 0.00 0.01 0.02 0.03 0.03 0.04 0.03
0.02 0.01 0.00 0.00 0.01 0.01 0.00 0.01 0.00 0.00 0.00 0.01 0.00 0.00 0.00 0.00 0.01 0.00 0.00 0.00 0.01 0.01 0.01 0.00 0.00 0.00 0.00 0.00 0.00 0.00 0.01 0.02 0.03 0.04 0.03 0.03 0.03 0.05 0.06 0.05 0.02 0.01 0.01 0.01
0.01 0.00 0.00 0.01 0.00 0.01 0.02 0.01 0.00 0.01 0.00 0.00 0.00 0.00 0.00 0.00 0.00 0.00 0.00 0.01 0.01 0.01 0.00 0.00 0.00 0.00 0.00 0.00 0.00 0.00 0.01 0.03 0.02 0.03 0.04 0.04 0.03 0.02 0.03 0.05 0.07 0.07 0.04 0.02
0.01 0.01 0.00 0.00 0.02 0.03 0.04 0.05 0.02 0.01 0.00 0.00 0.00 0.00 0.00 0.00 0.00 0.00 0.00 0.01 0.02 0.02 0.01 0.02 0.01 0.00 0.00 0.00 0.01 0.03 0.06 0.09 0.10 0.09 0.09 0.10 0.11 0.11 0.10 0.08 0.07 0.07 0.08 0.09
0.01 0.03 0.03 0.04 0.04 0.04 0.05 0.04 0.02 0.01 0.01 0.01 0.00 0.00 0.00 0.00 0.00 0.00 0.00 0.00 0.00 0.00 0.00 0.01 0.02 0.03 0.05 0.08 0.13 0.17 0.18 0.20 0.19 0.19 0.19 0.16 0.12 0.10 0.07 0.07 0.07 0.06 0.07 0.07
0.02 0.02 0.02 0.03 0.03 0.03 0.03 0.02 0.02 0.01 0.01 0.00 0.00 0.00 0.00 0.00 0.00 0.00 0.01 0.01 0.01 0.03 0.06 0.12 0.23 0.29 0.30 0.32 0.33 0.34 0.31 0.27 0.22 0.18 0.15 0.13 0.10 0.07 0.05 0.05 0.05 0.04 0.04 0.04
0.10 0.04 0.02 0.01 0.01 0.01 0.00 0.00 0.00 0.00 0.00 0.00 0.00 0.01 0.03 0.06 0.09 0.11 0.12 0.14 0.21 0.33 0.44 0.48 0.44 0.43 0.42 0.38 0.31 0.26 0.21 0.16 0.11 0.09 0.07 0.06 0.05 0.03 0.03 0.03 0.03 0.03 0.03 0.02
0.16 0.16 0.15 0.07 0.02 0.01 0.01 0.02 0.04 0.07 0.10 0.15 0.20 0.28 0.33 0.41 0.48 0.60 0.62 0.58 0.61 0.58 0.70 0.56 0.42 0.31 0.26 0.19 0.12 0.08 0.07 0.05 0.04 0.03 0.03 0.01 0.01 0.01 0.01 0.01 0.01 0.01 0.00 0.00
0.25 0.28 0.29 0.26 0.21 0.19 0.25 0.39 0.46 0.59 0.71 0.63 0.62 0.68 0.75 0.83 0.78 0.76 0.67 0.64 0.58 0.48 0.40 0.30 0.20 0.13 0.08 0.04 0.03 0.02 0.01 0.00 0.00 0.00 0.00 0.00 0.00 0.01 0.00 0.00 0.01 0.01 0.01 0.01
0.49 0.52 0.54 0.57 0.73 0.85 0.86 0.88 0.73 0.77 0.90 0.76 0.61 0.67 0.66 0.70 0.60 0.48 0.36 0.33 0.38 0.25 0.16 0.11 0.06 0.03 0.01 0.00 0.00 0.00 0.00 0.00 0.00 0.00 0.00 0.01 0.01 0.01 0.01 0.01 0.01 0.01 0.01 0.01
0.55 0.54 0.60 0.58 0.48 0.64 0.70 0.64 0.47 0.49 0.49 0.48 0.45 0.42 0.35 0.39 0.33 0.27 0.21 0.16 0.15 0.08 0.05 0.02 0.00 0.00 0.00 0.00 0.00 0.00 0.00 0.00 0.00 0.00 0.01 0.01 0.01 0.01 0.01 0.01 0.01 0.01 0.01 0.01
0.53 0.48 0.48 0.44 0.33 0.40 0.44 0.39 0.39 0.30 0.31 0.32 0.31 0.29 0.21 0.19 0.16 0.09 0.11 0.08 0.02 0.01 0.00 0.00 0.00 0.00 0.00 0.00 0.00 0.01 0.00 0.00 0.00 0.01 0.01 0.01 0.02 0.02 0.01 0.02 0.01 0.01 0.02 0.02
0.44 0.42 0.42 0.39 0.26 0.17 0.25 0.34 0.23 0.21 0.17 0.17 0.16 0.13 0.08 0.05 0.05 0.02 0.01 0.00 0.00 0.00 0.00 0.00 0.00 0.00 0.00 0.01 0.01 0.01 0.01 0.01 0.01 0.02 0.01 0.01 0.01 0.02 0.01 0.01 0.01 0.01 0.01 0.01
0.45 0.45 0.42 0.35 0.26 0.31 0.26 0.24 0.14 0.13 0.10 0.08 0.06 0.03 0.02 0.01 0.02 0.03 0.02 0.01 0.00 0.02 0.03 0.01 0.00 0.00 0.00 0.01 0.01 0.01 0.01 0.02 0.02 0.01 0.02 0.02 0.01 0.01 0.01 0.01 0.02 0.01 0.01 0.00
0.38 0.35 0.35 0.31 0.28 0.25 0.20 0.14 0.12 0.09 0.04 0.03 0.04 0.03 0.03 0.02 0.02 0.02 0.01 0.01 0.01 0.01 0.02 0.03 0.02 0.01 0.01 0.01 0.01 0.01 0.02 0.02 0.02 0.02 0.02 0.01 0.01 0.01 0.01 0.01 0.01 0.01 0.01 0.00
0.30 0.27 0.22 0.18 0.18 0.13 0.09 0.05 0.03 0.04 0.04 0.04 0.06 0.05 0.04 0.04 0.02 0.02 0.03 0.02 0.01 0.01 0.01 0.01 0.02 0.02 0.01 0.01 0.01 0.01 0.01 0.02 0.02 0.01 0.01 0.01 0.01 0.01 0.01 0.01 0.01 0.00 0.00 0.00

GFSNGP_prec_precacc24_084.txt.gz
Total_Precipitation_Accumulation
0.01 0.00 0.00 0.00 0.00 0.00 0.00 0.00 0.00 0.00 0.00 0.00 0.00 0.00 0.00 0.00 0.00 0.00 0.00 0.00 0.00 0.00 0.00 0.00 0.00 0.00 0.01 0.03 0.04 0.11 0.10 0.15 0.21 0.27 0.30 0.22 0.19 0.18 0.21 0.20 0.21 0.21 0.19 0.15
0.01 0.00 0.00 0.00 0.00 0.00 0.00 0.00 0.00 0.00 0.00 0.00 0.00 0.00 0.00 0.00 0.00 0.00 0.00 0.00 0.00 0.00 0.00 0.00 0.00 0.01 0.02 0.02 0.04 0.08 0.13 0.17 0.19 0.22 0.17 0.15 0.15 0.09 0.09 0.13 0.14 0.14 0.13 0.14
0.15 0.06 0.04 0.07 0.00 0.00 0.00 0.00 0.00 0.00 0.00 0.00 0.00 0.00 0.00 0.00 0.00 0.00 0.00 0.00 0.00 0.00 0.01 0.02 0.02 0.01 0.02 0.01 0.04 0.06 0.13 0.13 0.12 0.10 0.07 0.05 0.04 0.03 0.04 0.09 0.12 0.13 0.12 0.11
0.19 0.20 0.31 0.09 0.01 0.00 0.00 0.00 0.00 0.00 0.00 0.00 0.00 0.00 0.00 0.00 0.00 0.00 0.00 0.00 0.00 0.01 0.02 0.00 0.00 0.00 0.01 0.01 0.01 0.01 0.02 0.04 0.04 0.03 0.01 0.02 0.02 0.02 0.03 0.03 0.04 0.05 0.06 0.07
0.37 0.36 0.20 0.12 0.10 0.03 0.02 0.01 0.00 0.00 0.00 0.00 0.00 0.00 0.00 0.00 0.00 0.00 0.00 0.00 0.00 0.00 0.00 0.00 0.00 0.00 0.00 0.00 0.00 0.00 0.00 0.01 0.02 0.02 0.02 0.02 0.02 0.03 0.04 0.05 0.06 0.05 0.05 0.05
0.25 0.17 0.06 0.06 0.03 0.05 0.01 0.07 0.00 0.00 0.00 0.00 0.00 0.00 0.00 0.00 0.00 0.00 0.00 0.00 0.00 0.00 0.00 0.00 0.00 0.00 0.00 0.00 0.00 0.00 0.00 0.00 0.00 0.01 0.03 0.04 0.04 0.04 0.05 0.06 0.06 0.05 0.08 0.08
0.15 0.15 0.03 0.00 0.01 0.03 0.15 0.12 0.02 0.01 0.00 0.00 0.00 0.00 0.00 0.00 0.00 0.00 0.00 0.00 0.00 0.00 0.00 0.00 0.00 0.00 0.00 0.00 0.00 0.00 0.00 0.01 0.01 0.02 0.02 0.03 0.04 0.05 0.05 0.05 0.05 0.06 0.06 0.05
0.17 0.15 0.05 0.03 0.06 0.11 0.15 0.07 0.04 0.03 0.00 0.00 0.00 0.00 0.00 0.00 0.00 0.00 0.00 0.00 0.00 0.00 0.00 0.00 0.00 0.00 0.00 0.00 0.00 0.00 0.00 0.01 0.01 0.02 0.01 0.02 0.03 0.04 0.04 0.04 0.04 0.05 0.05 0.05
0.10 0.06 0.03 0.02 0.02 0.05 0.04 0.03 0.03 0.03 0.01 0.00 0.01 0.00 0.00 0.00 0.00 0.00 0.00 0.00 0.00 0.00 0.00 0.00 0.00 0.00 0.00 0.00 0.00 0.00 0.01 0.01 0.01 0.01 0.01 0.02 0.02 0.03 0.03 0.03 0.03 0.03 0.03 0.04
0.11 0.02 0.04 0.06 0.03 0.01 0.02 0.01 0.02 0.03 0.01 0.02 0.02 0.01 0.01 0.01 0.02 0.01 0.00 0.00 0.00 0.00 0.00 0.01 0.00 0.00 0.01 0.01 0.00 0.00 0.00 0.00 0.00 0.01 0.01 0.01 0.01 0.01 0.02 0.02 0.02 0.02 0.01 0.02
0.05 0.04 0.06 0.08 0.12 0.06 0.01 0.00 0.00 0.00 0.00 0.00 0.00 0.01 0.01 0.01 0.01 0.05 0.08 0.06 0.04 0.03 0.04 0.03 0.04 0.03 0.02 0.02 0.02 0.01 0.00 0.00 0.00 0.00 0.00 0.00 0.00 0.01 0.01 0.01 0.02 0.02 0.04 0.08
0.00 0.00 0.01 0.00 0.00 0.01 0.01 0.00 0.00 0.00 0.00 0.00 0.00 0.00 0.00 0.00 0.01 0.01 0.03 0.07 0.13 0.11 0.08 0.03 0.01 0.00 0.00 0.00 0.00 0.00 0.00 0.00 0.00 0.00 0.00 0.00 0.00 0.03 0.11 0.13 0.14 0.14 0.14 0.11
0.01 0.01 0.00 0.00 0.01 0.01 0.00 0.01 0.00 0.00 0.00 0.01 0.01 0.00 0.00 0.00 0.01 0.01 0.00 0.01 0.05 0.13 0.18 0.19 0.15 0.12 0.10 0.07 0.05 0.04 0.04 0.05 0.08 0.10 0.10 0.10 0.11 0.12 0.16 0.16 0.08 0.04 0.03 0.02
0.01 0.00 0.00 0.01 0.00 0.01 0.02 0.02 0.01 0.01 0.01 0.00 0.00 0.00 0.00 0.00 0.00 0.00 0.00 0.01 0.02 0.05 0.11 0.18 0.30 0.43 0.48 0.40 0.33 0.34 0.35 0.35 0.29 0.26 0.22 0.17 0.12 0.09 0.08 0.09 0.09 0.09 0.06 0.03
0.01 0.01 0.00 0.00 0.02 0.03 0.04 0.06 0.04 0.02 0.01 0.01 0.01 0.02 0.01 0.00 0.00 0.00 0.00 0.01 0.02 0.04 0.08 0.11 0.15 0.20 0.21 0.23 0.25 0.28 0.30 0.32 0.27 0.21 0.18 0.15 0.14 0.13 0.10 0.08 0.08 0.09 0.09 0.10
0.01 0.03 0.03 0.04 0.04 0.04 0.05 0.05 0.04 0.02 0.01 0.01 0.01 0.00 0.00 0.00 0.00 0.00 0.00 0.00 0.01 0.02 0.04 0.07 0.14 0.24 0.32 0.36 0.35 0.33 0.33 0.34 0.28 0.26 0.24 0.18 0.13 0.10 0.08 0.07 0.07 0.07 0.08 0.09
0.03 0.03 0.02 0.03 0.03 0.03 0.03 0.03 0.02 0.02 0.01 0.00 0.00 0.00 0.00 0.00 0.00 0.01 0.02 0.01 0.02 0.08 0.16 0.25 0.49 0.57 0.56 0.53 0.47 0.48 0.43 0.38 0.28 0.20 0.16 0.14 0.11 0.08 0.06 0.05 0.05 0.05 0.04 0.04
0.11 0.05 0.02 0.02 0.01 0.01 0.01 0.00 0.00 0.00 0.01 0.02 0.01 0.01 0.00 0.01 0.03 0.07 0.12 0.14 0.23 0.37 0.51 0.59 0.56 0.54 0.52 0.48 0.38 0.32 0.25 0.19 0.13 0.10 0.08 0.07 0.05 0.03 0.03 0.03 0.03 0.03 0.03 0.02
0.15 0.17 0.16 0.11 0.05 0.03 0.02 0.02 0.02 0.03 0.04 0.06 0.11 0.18 0.18 0.28 0.39 0.57 0.62 0.60 0.64 0.62 0.83 0.68 0.52 0.37 0.32 0.25 0.15 0.10 0.09 0.07 0.05 0.03 0.03 0.01 0.01 0.01 0.01 0.01 0.01 0.01 0.01 0.01
0.10 0.13 0.16 0.23 0.27 0.24 0.22 0.24 0.22 0.30 0.44 0.43 0.49 0.63 0.75 0.88 0.84 0.82 0.72 0.70 0.68 0.59 0.52 0.41 0.27 0.18 0.11 0.06 0.03 0.02 0.01 0.00 0.00 0.00 0.00 0.00 0.00 0.01 0.00 0.00 0.01 0.01 0.01 0.01
0.28 0.30 0.33 0.34 0.42 0.53 0.62 0.72 0.65 0.75 0.93 0.83 0.67 0.73 0.72 0.79 0.69 0.57 0.42 0.38 0.49 0.34 0.23 0.16 0.09 0.04 0.01 0.00 0.00 0.00 0.00 0.00 0.00 0.00 0.00 0.01 0.01 0.01 0.01 0.01 0.01 0.01 0.01 0.01
0.37 0.35 0.41 0.39 0.30 0.47 0.58 0.59 0.50 0.57 0.60 0.59 0.54 0.50 0.40 0.47 0.42 0.33 0.29 0.22 0.23 0.13 0.07 0.03 0.00 0.00 0.00 0.00 0.00 0.00 0.00 0.00 0.00 0.00 0.01 0.01 0.01 0.01 0.01 0.01 0.01 0.01 0.01 0.01
0.43 0.40 0.40 0.39 0.33 0.43 0.48 0.45 0.47 0.36 0.39 0.41 0.39 0.38 0.28 0.27 0.24 0.15 0.17 0.12 0.03 0.01 0.00 0.00 0.00 0.00 0.00 0.00 0.00 0.01 0.00 0.00 0.00 0.01 0.01 0.01 0.02 0.01 0.01 0.02 0.01 0.01 0.01 0.01
0.43 0.41 0.45 0.45 0.33 0.22 0.31 0.44 0.32 0.29 0.25 0.26 0.25 0.24 0.17 0.12 0.10 0.04 0.01 0.01 0.00 0.00 0.00 0.00 0.00 0.00 0.00 0.01 0.01 0.01 0.00 0.01 0.01 0.02 0.01 0.01 0.01 0.01 0.01 0.01 0.01 0.01 0.01 0.01
0.44 0.43 0.42 0.37 0.27 0.33 0.30 0.32 0.21 0.21 0.18 0.16 0.13 0.08 0.04 0.01 0.03 0.04 0.01 0.01 0.00 0.02 0.03 0.01 0.00 0.00 0.00 0.01 0.01 0.01 0.01 0.01 0.02 0.01 0.01 0.02 0.01 0.01 0.01 0.01 0.02 0.01 0.01 0.00
0.36 0.34 0.35 0.32 0.29 0.27 0.24 0.19 0.17 0.15 0.07 0.04 0.05 0.04 0.03 0.02 0.02 0.02 0.01 0.01 0.01 0.01 0.02 0.03 0.01 0.01 0.01 0.01 0.01 0.01 0.01 0.01 0.02 0.02 0.01 0.01 0.01 0.01 0.01 0.01 0.01 0.01 0.01 0.00
0.28 0.25 0.21 0.17 0.18 0.14 0.09 0.04 0.02 0.03 0.03 0.03 0.05 0.04 0.03 0.03 0.02 0.02 0.02 0.02 0.01 0.01 0.01 0.01 0.01 0.01 0.01 0.01 0.01 0.01 0.01 0.01 0.02 0.01 0.01 0.01 0.01 0.01 0.01 0.01 0.01 0.00 0.00 0.00

GFSNGP_prec_precacc24_087.txt.gz
Total_Precipitation_Accumulation
0.01 0.00 0.00 0.00 0.00 0.00 0.00 0.00 0.00 0.00 0.00 0.00 0.00 0.00 0.00 0.00 0.00 0.00 0.00 0.00 0.00 0.00 0.00 0.00 0.00 0.00 0.01 0.03 0.04 0.11 0.09 0.13 0.17 0.25 0.28 0.21 0.18 0.18 0.20 0.19 0.21 0.21 0.19 0.15
0.01 0.00 0.00 0.00 0.00 0.00 0.00 0.00 0.00 0.00 0.00 0.00 0.00 0.00 0.00 0.00 0.00 0.00 0.00 0.00 0.00 0.00 0.00 0.00 0.00 0.00 0.02 0.01 0.02 0.06 0.11 0.11 0.13 0.17 0.16 0.15 0.15 0.09 0.09 0.12 0.14 0.14 0.13 0.13
0.15 0.07 0.05 0.07 0.00 0.00 0.00 0.00 0.00 0.00 0.00 0.00 0.00 0.00 0.00 0.00 0.00 0.00 0.00 0.00 0.00 0.00 0.01 0.02 0.02 0.00 0.00 0.00 0.02 0.04 0.10 0.12 0.11 0.09 0.07 0.05 0.04 0.03 0.04 0.09 0.12 0.14 0.11 0.10
0.20 0.20 0.31 0.09 0.01 0.01 0.00 0.00 0.00 0.00 0.00 0.00 0.00 0.00 0.00 0.00 0.00 0.00 0.00 0.00 0.00 0.01 0.02 0.00 0.00 0.00 0.00 0.01 0.01 0.01 0.02 0.04 0.04 0.03 0.01 0.02 0.02 0.02 0.03 0.03 0.05 0.06 0.07 0.07
0.39 0.36 0.20 0.12 0.11 0.08 0.08 0.02 0.00 0.00 0.00 0.00 0.00 0.00 0.00 0.00 0.00 0.00 0.00 0.00 0.00 0.00 0.00 0.00 0.00 0.00 0.00 0.00 0.00 0.00 0.00 0.01 0.02 0.02 0.02 0.02 0.02 0.03 0.04 0.05 0.06 0.05 0.05 0.05
0.26 0.20 0.07 0.08 0.03 0.05 0.02 0.12 0.05 0.01 0.00 0.00 0.00 0.00 0.01 0.00 0.00 0.00 0.00 0.00 0.00 0.00 0.00 0.00 0.00 0.00 0.00 0.00 0.00 0.00 0.00 0.00 0.00 0.01 0.03 0.04 0.04 0.04 0.05 0.06 0.06 0.06 0.08 0.08
0.13 0.18 0.05 0.02 0.01 0.04 0.26 0.28 0.18 0.03 0.01 0.01 0.00 0.01 0.01 0.00 0.00 0.00 0.00 0.00 0.00 0.00 0.00 0.00 0.00 0.00 0.00 0.00 0.00 0.00 0.00 0.01 0.01 0.02 0.02 0.03 0.04 0.05 0.05 0.05 0.06 0.07 0.07 0.06
0.16 0.17 0.07 0.03 0.08 0.15 0.29 0.26 0.41 0.28 0.18 0.11 0.07 0.00 0.00 0.00 0.00 0.00 0.00 0.00 0.00 0.00 0.00 0.00 0.00 0.00 0.00 0.00 0.00 0.00 0.00 0.01 0.01 0.02 0.01 0.02 0.03 0.04 0.05 0.05 0.05 0.05 0.05 0.05
0.13 0.09 0.08 0.02 0.04 0.06 0.04 0.04 0.03 0.05 0.06 0.06 0.07 0.00 0.00 0.00 0.00 0.00 0.00 0.00 0.00 0.00 0.00 0.00 0.00 0.00 0.00 0.00 0.00 0.00 0.01 0.01 0.01 0.01 0.02 0.03 0.04 0.05 0.04 0.04 0.04 0.03 0.03 0.04
0.16 0.08 0.07 0.06 0.03 0.01 0.02 0.01 0.02 0.03 0.01 0.02 0.02 0.01 0.01 0.01 0.02 0.01 0.00 0.00 0.00 0.00 0.00 0.01 0.00 0.00 0.01 0.01 0.00 0.00 0.00 0.01 0.02 0.04 0.05 0.04 0.03 0.03 0.03 0.02 0.02 0.02 0.02 0.02
0.05 0.06 0.07 0.09 0.12 0.06 0.01 0.00 0.00 0.00 0.00 0.00 0.00 0.01 0.01 0.01 0.01 0.05 0.08 0.07 0.05 0.05 0.06 0.04 0.05 0.04 0.05 0.04 0.04 0.03 0.03 0.04 0.04 0.04 0.03 0.01 0.02 0.04 0.03 0.03 0.05 0.03 0.05 0.09
0.02 0.00 0.01 0.01 0.00 0.01 0.01 0.00 0.00 0.00 0.00 0.00 0.00 0.00 0.00 0.00 0.01 0.01 0.03 0.08 0.16 0.19 0.20 0.18 0.11 0.07 0.04 0.04 0.05 0.04 0.04 0.03 0.03 0.02 0.01 0.00 0.01 0.07 0.17 0.20 0.22 0.25 0.26 0.20
0.01 0.01 0.00 0.00 0.01 0.01 0.00 0.01 0.00 0.00 0.00 0.01 0.01 0.00 0.00 0.00 0.01 0.01 0.00 0.01 0.09 0.31 0.41 0.44 0.52 0.51 0.42 0.25 0.14 0.11 0.11 0.12 0.13 0.12 0.12 0.14 0.18 0.23 0.34 0.41 0.31 0.26 0.21 0.15
0.01 0.00 0.00 0.01 0.00 0.01 0.02 0.02 0.01 0.01 0.01 0.00 0.00 0.00 0.00 0.00 0.01 0.00 0.00 0.01 0.02 0.08 0.28 0.37 0.41 0.56 0.69 0.70 0.64 0.62 0.59 0.60 0.55 0.58 0.55 0.52 0.46 0.39 0.31 0.26 0.22 0.19 0.12 0.05
0.01 0.01 0.00 0.00 0.02 0.03 0.04 0.06 0.04 0.02 0.01 0.01 0.01 0.02 0.03 0.03 0.01 0.01 0.00 0.01 0.02 0.04 0.08 0.12 0.16 0.22 0.23 0.25 0.31 0.44 0.58 0.67 0.59 0.47 0.36 0.28 0.24 0.21 0.16 0.12 0.11 0.11 0.11 0.11
0.01 0.03 0.03 0.04 0.04 0.04 0.05 0.05 0.04 0.02 0.01 0.01 0.01 0.00 0.01 0.02 0.01 0.00 0.00 0.00 0.01 0.03 0.04 0.07 0.15 0.28 0.37 0.43 0.45 0.49 0.53 0.53 0.41 0.36 0.34 0.28 0.21 0.16 0.11 0.09 0.09 0.09 0.10 0.11
0.03 0.03 0.02 0.03 0.03 0.03 0.03 0.03 0.02 0.02 0.01 0.00 0.00 0.00 0.00 0.00 0.01 0.01 0.03 0.02 0.02 0.08 0.16 0.26 0.52 0.62 0.61 0.62 0.58 0.60 0.54 0.50 0.39 0.29 0.23 0.18 0.14 0.10 0.07 0.06 0.06 0.05 0.05 0.04
0.11 0.05 0.02 0.02 0.01 0.01 0.01 0.00 0.00 0.00 0.02 0.03 0.04 0.03 0.02 0.03 0.05 0.08 0.11 0.11 0.18 0.33 0.49 0.57 0.55 0.53 0.53 0.51 0.41 0.35 0.28 0.21 0.15 0.12 0.10 0.08 0.06 0.04 0.03 0.03 0.03 0.03 0.03 0.02
0.15 0.17 0.16 0.11 0.06 0.03 0.02 0.02 0.02 0.03 0.04 0.06 0.11 0.19 0.24 0.31 0.39 0.53 0.57 0.50 0.53 0.52 0.80 0.69 0.53 0.38 0.33 0.27 0.15 0.11 0.09 0.07 0.05 0.03 0.03 0.01 0.01 0.01 0.01 0.01 0.01 0.01 0.01 0.00
0.09 0.13 0.15 0.21 0.24 0.21 0.20 0.21 0.18 0.22 0.30 0.26 0.31 0.45 0.60 0.81 0.82 0.81 0.66 0.63 0.66 0.61 0.54 0.42 0.28 0.18 0.11 0.07 0.03 0.02 0.01 0.00 0.00 0.00 0.00 0.00 0.00 0.00 0.00 0.00 0.01 0.01 0.01 0.01
0.22 0.23 0.25 0.26 0.32 0.37 0.43 0.51 0.45 0.54 0.72 0.67 0.56 0.64 0.63 0.71 0.66 0.60 0.47 0.40 0.52 0.36 0.24 0.16 0.09 0.04 0.01 0.00 0.00 0.00 0.00 0.00 0.00 0.00 0.00 0.01 0.01 0.01 0.01 0.00 0.00 0.01 0.01 0.01
0.32 0.31 0.36 0.35 0.28 0.41 0.49 0.49 0.42 0.48 0.52 0.52 0.51 0.50 0.43 0.50 0.44 0.36 0.32 0.25 0.24 0.13 0.07 0.03 0.00 0.00 0.00 0.00 0.00 0.00 0.00 0.00 0.00 0.00 0.01 0.01 0.01 0.01 0.00 0.00 0.01 0.01 0.01 0.01
0.40 0.38 0.38 0.37 0.32 0.40 0.44 0.41 0.44 0.36 0.39 0.40 0.38 0.38 0.30 0.30 0.28 0.19 0.19 0.12 0.03 0.01 0.00 0.00 0.00 0.00 0.00 0.00 0.00 0.00 0.00 0.00 0.00 0.01 0.01 0.01 0.01 0.01 0.01 0.01 0.01 0.01 0.01 0.01
0.41 0.39 0.42 0.43 0.33 0.22 0.31 0.45 0.34 0.32 0.27 0.28 0.28 0.27 0.20 0.14 0.10 0.04 0.01 0.01 0.00 0.00 0.00 0.00 0.00 0.00 0.00 0.00 0.01 0.01 0.00 0.01 0.00 0.01 0.01 0.01 0.01 0.01 0.01 0.01 0.01 0.01 0.01 0.01
0.41 0.40 0.39 0.36 0.28 0.34 0.32 0.35 0.25 0.25 0.21 0.18 0.14 0.08 0.04 0.01 0.03 0.03 0.01 0.01 0.00 0.02 0.03 0.00 0.00 0.00 0.00 0.01 0.01 0.01 0.00 0.01 0.01 0.00 0.01 0.01 0.01 0.00 0.01 0.01 0.01 0.01 0.01 0.01
0.34 0.32 0.34 0.32 0.29 0.27 0.24 0.21 0.19 0.16 0.07 0.04 0.04 0.03 0.03 0.02 0.01 0.01 0.01 0.01 0.00 0.00 0.02 0.02 0.01 0.00 0.00 0.00 0.00 0.00 0.01 0.01 0.01 0.01 0.01 0.00 0.00 0.01 0.01 0.01 0.00 0.00 0.01 0.00
0.27 0.25 0.22 0.18 0.19 0.15 0.09 0.05 0.02 0.03 0.02 0.02 0.04 0.03 0.02 0.02 0.01 0.01 0.02 0.01 0.01 0.01 0.01 0.01 0.01 0.01 0.01 0.00 0.00 0.01 0.01 0.01 0.01 0.01 0.00 0.00 0.01 0.01 0.01 0.01 0.00 0.00 0.00 0.00